CZ-4 DEB

Satellite information

Favourite Embed

Satellite Type and Status

DEBRISIN ORBIT

Key statistics

Satellite CZ-4 DEB at a glance.

Uptime

9557

Days in orbit

Revolutions

≈ 14.6

Per day

Orbit

SSO

Sun Synchronous Orbit

Inclination

98.6

Latest

Satellite identification and parameters

Extended collection of information and parameters for CZ-4 DEB.

Object identification

Identified? True

Debris? True

Object name: CZ-4 DEB

International designator: 1999-057DY

Object number (NORAD): 26234

Object ID (CCSDS): 26234

Country: PEOPLES REPUBLIC OF CHINA (PRC)

Current information (Y/N): Y

RCS size: SMALL

Orbital parameters

Period: 98.944 minutes

Inclination: 98.5931 deg

SMA: 7086.304 km

Apoapsis: 716.733 km

Periapsis: 699.605 km

RAAN: 95.5362 deg

Eccentricy: 0.00120856

Argument of periapsis: 116.5148 deg

Mean anomaly: 304.9217 deg

Mean motion: 14.55368967 rev/day

Mean motion (dot): 0.00001237 rev/day2

B* drag term: 0.00029583842 1/REarth

Two-line elements (TLE)

Creation date: Dec. 12, 2025, 10:14 a.m.

Reference frame: TEME

Reference center: EARTH

Epoch: Dec. 12, 2025, 7:28 a.m. UTC

TLE line 0: 0 CZ-4 DEB

TLE line 1: 1 26234U 99057DY 25346.31132150 .00001237 00000-0 29584-3 0 9997

TLE line 2: 2 26234 98.5931 95.5362 0012086 116.5148 304.9217 14.55368967363133

Live tracking on map

Real-time ground track for satellite CZ-4 DEB.

In-orbit conjunctions

A list of the most updated potential collisions computed for object CZ-4 DEB.

Target Orbit TCA Probability of collision Miss distance Type
COSMOS 2251 DEB LEO 2025-08-24 00:13:57 0.00138254 94.0 (m) DEBRIS
COSMOS 1275 DEB LEO 2025-07-28 22:27:48 0.0001025155 70.0 (m) DEBRIS
CZ-6A DEB LEO 2025-01-18 18:35:33 0.0002338616 243.0 (m) DEBRIS
FREGAT R/B LEO 2024-08-14 05:00:36 0.0002715486 390.0 (m) ROCKET BODY

Associated space launch

The CBERS (China Brazil Earth Resources Satellite) or ZY 1 (Zi Yuan) satellites are designed for global coverage and include cameras to make optical observations and a data collecting system to gather data on the environment. They are unique systems due to the use of on-board sensors which combine features that are especially designed to resolve the broad range of space and time scales involved in the monitoring and preservation of the ecosystem. They are operated jointly by the China Centre for Resources Satellite Data and Application (CRESDA) and the Brazilian INPE (Instituto Nacional de Pesquisas Espaciais, National Institute of Space Research).

CZ-4 DEB was lifted into orbit during the mission ‘Long March 4B | Zi Yuan 1-1’, on board a Long March 4B space rocket.

The launch took place on Oct. 14, 1999, 3:15 a.m. from Launch Complex 7.

For more information about the launch, click the button.

Launch to space Long March 4B | Zi Yuan 1-1
Long March 4B | Zi Yuan 1-1

Agency: N/A

Status: Launch Successful

Launch date: Oct. 14, 1999, 3:15 a.m. UTC

Rocket: Long March 4B

Launch pad: Launch Complex 7

Location: Taiyuan Satellite Launch Center, People's Republic of China

...

Latest news about this satellite

There are no fresh news available about this satellite. Check back as we update our databases every day.


Newsletter sign-up

Weekly statistics, charts and insights to help you stay on top of the space industry.